Location: Waco, TX
(31.5480°N, 97.1670°W)
Time: 23:29:30
(UTC-05:00)

ISS - Pass Details

Date: 13 June 2018
Orbit: 402 x 407 km, 51.6° (Epoch: 25 June)

Event Time Altitude Azimuth Distance (km) Brightness Sun altitude
Rises 12:31:14 0° 233° (SW) 2,318 0.0 74.8°
Reaches altitude 10° 12:33:20 10° 237° (WSW) 1,460 -0.9 75.2°
Maximum altitude 12:36:33 55° 317° (NW) 492 -2.7 75.7°
Drops below altitude 10° 12:39:47 10° 36° (NE) 1,466 -0.8 76.3°
Sets 12:41:54 0° 41° (NE) 2,328 0.0 76.7°
